Flag for U.S.A. Weather past 2 weeks in Garland, Texas, U.S.A.

Now
27 °F

Clear.


Feels Like: 27 °F
Forecast: 31 / 54 °F
Wind: No wind

Location: Mesquite Metro Airport

Current Time: Dec 29, 2014 at 7:19:08 AM

Latest Report: Dec 29, 2014 at 6:50 AM


Visibility: 10 mi

Pressure: 30.15 "Hg

Humidity: 100%

Dew point: 27 °F

Location of GarlandLocation

Historic Weather in Garland — Graph

°F

Garland temperature yesterday

Maximum temperature yesterday: 46 °F (at 4:50 PM)
Minimum temperature yesterday: 30 °F (at 11:55 PM)
Average temperature yesterday: 36 °F

Past Weeks' High & Low Weather Summary

 TemperatureHumidityPressure
High66 °F (Dec 22, 11:50 AM)100% (Dec 18, 6:50 AM)30.38 "Hg (Dec 18, 6:50 AM)
Low26 °F (Dec 29, 4:15 AM)24% (Dec 25, 1:50 PM)29.57 "Hg (Dec 22, 12:50 PM)
Average47 °F78%30.06 "Hg
* Reported Dec 14 4:15 AM — Dec 29 4:35 AM, Garland, Weather by CustomWeather, © 2014

Note: Actual official high and low records may vary slightly from our data, if they occured in-between our weather recording intervals... More about our weather records

Advertising

Garland weather history for previous 24 hours

 ConditionsComfort  
Time TempWeatherWind HumidityBarometerVisibility
4:35 AM
Dec 29
27 °FClear.5 mph96%30.13 "Hg10 mi
4:15 AM26 °FClear.5 mph96%30.14 "Hg10 mi
3:55 AM26 °FClear.3 mph96%30.14 "Hg10 mi
3:35 AM28 °FClear.3 mph95%30.14 "Hg10 mi
3:15 AM28 °FClear.No wind92%30.14 "Hg10 mi
2:55 AM27 °FClear.No wind93%30.15 "Hg10 mi
2:35 AM27 °FClear.No wind94%30.14 "Hg10 mi
2:15 AM28 °FClear.No wind92%30.15 "Hg10 mi
1:55 AM28 °FClear.No wind93%30.15 "Hg10 mi
1:35 AM28 °FClear.No wind92%30.15 "Hg10 mi
1:15 AM28 °FClear.No wind93%30.15 "Hg10 mi
12:55 AM28 °FClear.3 mph92%30.15 "Hg10 mi
12:35 AM29 °FClear.3 mph92%30.16 "Hg10 mi
12:15 AM29 °FClear.5 mph92%30.16 "Hg10 mi
11:55 PM
Dec 28
30 °FClear.No wind86%30.17 "Hg10 mi
11:35 PM32 °FClear.No wind81%30.18 "Hg10 mi
11:15 PM32 °FClear.No wind82%30.19 "Hg10 mi
10:55 PM33 °FClear.No wind76%30.18 "Hg10 mi
10:35 PM33 °FClear.No wind76%30.18 "Hg10 mi
10:15 PM32 °FClear.3 mph79%30.18 "Hg10 mi
9:55 PM32 °FClear.5 mph77%30.17 "Hg10 mi
9:15 PM33 °FClear.6 mph75%30.16 "Hg10 mi
8:55 PM33 °FClear.5 mph75%30.16 "Hg10 mi
7:50 PM36 °FClear.5 mph70%30.16 "Hg10 mi
6:50 PM37 °FClear.3 mph65%30.16 "Hg10 mi
5:50 PM41 °FClear.No wind49%30.16 "Hg10 mi
4:50 PM46 °FSunny.No wind37%30.16 "Hg10 mi
2:50 PM43 °FSunny.No wind49%30.18 "Hg10 mi
1:50 PM43 °FSunny.7 mph49%30.19 "Hg10 mi
12:50 PM39 °FPartly sunny.6 mph56%30.23 "Hg10 mi
11:50 AM39 °FScattered clouds.6 mph52%30.27 "Hg10 mi
10:50 AM37 °FPartly sunny.8 mph60%30.28 "Hg10 mi
9:50 AM37 °FOvercast.8 mph60%30.29 "Hg10 mi
8:50 AM36 °FOvercast.8 mph70%30.27 "Hg10 mi
7:50 AM36 °FOvercast.7 mph70%30.27 "Hg10 mi
Weather by CustomWeather, © 2014

See weather overviewHow to use our weather pages